Flag for Portugal Weather past 2 weeks in Guimarães, Portugal

Now
64 °F

Mild.


Feels Like: 64 °F
Forecast: 58 / 84 °F
Wind: 5 mph from Northwest

Location: Porto / Pedras Rubras

Current Time: Jul 24, 2014 at 8:17:38 AM

Latest Report: Jul 24, 2014 at 7:00 AM


Visibility: N/A

Pressure: 29.94 "Hg

Humidity: 92%

Dew point: 61 °F

Location of GuimarãesLocation

Historic Weather in Guimarães — Graph

°F

Guimarães temperature yesterday

Maximum temperature yesterday: 70 °F (at 3:00 PM)
Minimum temperature yesterday: 64 °F (at 12:00 AM)
Average temperature yesterday: 66 °F

Past Weeks' High & Low Weather Summary

 TemperatureHumidityPressure
High82 °F (Jul 9, 2:00 PM)95% (Jul 17, 8:00 AM)30.21 "Hg (Jul 17, 8:00 AM)
Low57 °F (Jul 18, 5:00 AM)26% (Jul 10, 2:00 PM)29.83 "Hg (Jul 19, 7:00 AM)
Average67 °F71%30.03 "Hg
* Reported Jul 9 2:00 PM — Jul 24 7:00 AM, Guimarães, Weather by CustomWeather, © 2014

Note: Actual official high and low records may vary slightly from our data, if they occured in-between our weather recording intervals... More about our weather records

Advertising

Guimarães weather history for previous 24 hours

 ConditionsComfort  
Time TempWeatherWind HumidityBarometerVisibility
7:00 AM
Jul 24
64 °FMild.5 mph92%29.94 "HgN/A
6:00 AM64 °FMild.6 mph92%29.95 "HgN/A
5:00 AM64 °FMild.6 mph92%29.95 "HgN/A
4:00 AM64 °FMild.5 mph92%29.96 "HgN/A
3:00 AM64 °FMild.6 mph92%29.96 "HgN/A
2:00 AM64 °FMild.6 mph91%29.97 "HgN/A
1:00 AM64 °FMild.6 mph89%29.99 "HgN/A
12:00 AM64 °FMild.6 mph91%29.99 "HgN/A
11:00 PM
Jul 23
65 °FMild.5 mph88%29.99 "HgN/A
10:00 PM65 °FMild.5 mph88%29.99 "HgN/A
9:00 PM65 °FMild.3 mph88%29.99 "HgN/A
8:00 PM66 °FMild.3 mph86%29.98 "HgN/A
7:00 PM67 °FMild.5 mph83%29.98 "HgN/A
6:00 PM67 °FMild.6 mph82%29.98 "HgN/A
5:00 PM67 °FMild.5 mph82%29.98 "HgN/A
4:00 PM70 °FMild.3 mph74%29.98 "HgN/A
3:00 PM70 °FMild.3 mph72%29.98 "HgN/A
1:00 PM69 °FMild.3 mph66%29.98 "HgN/A
Weather by CustomWeather, © 2014

See weather overviewHow to use our weather pages